{"data":{"norad_id":61012,"epoch":"2026-09-22T19:32:27.414816Z","epoch_age_seconds":91732,"freshness":"FRESH","line1":"1 61012U 24159B   26265.81420619  .00001002  00000+0  14446-3 0  9997","line2":"2 61012  49.9960 350.3377 0018291  72.2275 288.0658 14.84523518111295","mean_motion":14.84523518,"eccentricity":0.0018291,"inclination_deg":49.996,"raan_deg":350.3377,"arg_perigee_deg":72.2275,"mean_anomaly_deg":288.0658,"bstar":0.00014446,"rev_number":11129,"period_min":97.000820973184,"perigee_km":602.29055944173,"apogee_km":627.87315266094,"semimajor_km":6993.2188560513,"source":"CELESTRAK","updated_at":"2026-09-23T09:00:20.796066Z"}}